sat.trackr.live / text

‹ back to catalog

STARLINK-36150

NORAD 67031 · 2025-294B

PAYLOAD ACTIVE UNKNOWN

§ Identity

Operator
Country
US
Launch date
2025-12-11
Launch site
AFETR
Launch vehicle
Mass (kg)
RCS (m²)

Purposes: comms

External: N2YO · Heavens-Above · Gunter

§ Orbital elements

Epoch: 2026-09-20T08:11:02.618592Z

Period
94.27 min
Inclination
43.0023°
Eccentricity
0.0001008
Mean motion
15.27588501 rev/d
Perigee alt
482.3 km
Apogee alt
483.7 km
Semi-major
6,861.2 km
B*
3.1548e-4
RAAN
18.3611°
Arg perigee
267.2470°
Mean anomaly
92.8266°
Rev number
4,457

§ Raw data

STARLINK-361501 67031U 25294B   26263.34100253  .00008431  00000+0  31548-3 0  99952 67031  43.0023  18.3611 0001008 267.2470  92.8266 15.27588501 44573

JSON: /api/v1/satellites/67031 · /tle

For live sub-satellite position, see the globe view (requires WebGL).

§ Visibility from observer

Set your observer location to see the next 7 days of passes ≥ 10°. The values pass through the URL so the page stays shareable.

No JS? Fill the form by hand. The geolocation button needs JavaScript.